GW2042 Weather Reports


Display with metric or nautical units.
time (UTC)temp
F
wind
direction
speed
MPH
gust
MPH
rain 1hr
in
rain 24hr
in
rain mn
in
humidity
%
barometer
mb
20260831024606 85 133 2.0 6.0 0.00 0.00 0.00 45 1015.3
20260831024020 86 130 3.0 6.0 0.00 0.00 0.00 45 1015.3
20260831023520 86 150 2.0 7.0 0.00 0.00 0.00 45 1015.2
20260831023040 86 109 2.0 8.0 0.00 0.00 0.00 44 1015.2
20260831022519 86 135 3.0 8.0 0.00 0.00 0.00 44 1015.1
20260831022023 86 107 2.0 7.0 0.00 0.00 0.00 43 1015.0
20260831021544 87 150 2.0 7.0 0.00 0.00 0.00 43 1015.0
20260831021020 87 112 1.0 7.0 0.00 0.00 0.00 42 1014.7
20260831020520 87 144 3.0 7.0 0.00 0.00 0.00 42 1014.6
20260831020103 87 148 2.0 7.0 0.00 0.00 0.00 42 1014.6
20260831015519 87 144 2.0 6.0 0.00 0.00 0.00 42 1014.5
20260831015019 87 171 1.0 7.0 0.00 0.00 0.00 42 1014.5
20260831014558 88 143 1.0 7.0 0.00 0.00 0.00 41 1014.3
20260831014018 88 157 2.0 7.0 0.00 0.00 0.00 41 1014.2
20260831013523 88 145 2.0 7.0 0.00 0.00 0.00 41 1014.2
20260831013041 88 121 2.0 7.0 0.00 0.00 0.00 40 1014.1
20260831012520 89 109 2.0 7.0 0.00 0.00 0.00 40 1014.1
20260831012017 89 125 2.0 7.0 0.00 0.00 0.00 39 1013.9
20260831011542 89 157 1.0 7.0 0.00 0.00 0.00 39 1013.9
20260831011017 90 149 2.0 7.0 0.00 0.00 0.00 38 1013.8
20260831010524 90 131 2.0 8.0 0.00 0.00 0.00 37 1013.9
20260831010047 91 152 2.0 8.0 0.00 0.00 0.00 37 1013.9
20260831005519 91 136 3.0 8.0 0.00 0.00 0.00 36 1013.9
20260831005023 91 159 3.0 8.0 0.00 0.00 0.00 35 1013.9
20260831004541 92 159 1.0 7.0 0.00 0.00 0.00 34 1013.8
20260831004019 93 140 2.0 8.0 0.00 0.00 0.00 34 1013.8
20260831003521 93 149 3.0 8.0 0.00 0.00 0.00 33 1013.8
20260831003043 93 153 2.0 7.0 0.00 0.00 0.00 33 1013.8
20260831002521 94 159 2.0 7.0 0.00 0.00 0.00 33 1013.8
20260831002018 94 144 2.0 7.0 0.00 0.00 0.00 32 1013.8
20260831001551 94 144 3.0 8.0 0.00 0.00 0.00 32 1013.8
20260831001020 95 136 3.0 8.0 0.00 0.00 0.00 32 1013.8
20260831000521 95 166 2.0 10.0 0.00 0.00 0.00 31 1013.8
20260831000041 95 159 3.0 10.0 0.00 0.00 0.00 31 1013.8
20260830235525 96 130 5.0 10.0 0.00 0.00 0.00 31 1013.8
20260830235023 96 147 3.0 10.0 0.00 0.00 0.00 30 1013.7
20260830234605 97 134 3.0 10.0 0.00 0.00 0.00 29 1013.8
20260830234019 97 141 4.0 10.0 0.00 0.00 0.00 29 1013.8
20260830233520 97 112 2.0 9.0 0.00 0.00 0.00 29 1013.6
20260830233042 98 178 2.0 8.0 0.00 0.00 0.00 28 1013.7
20260830232519 98 155 3.0 8.0 0.00 0.00 0.00 27 1013.8
20260830232021 98 126 3.0 10.0 0.00 0.00 0.00 27 1013.9
20260830231542 98 180 3.0 10.0 0.00 0.00 0.00 27 1013.9
20260830231019 99 135 3.0 9.0 0.00 0.00 0.00 27 1014.0
20260830230518 99 167 3.0 9.0 0.00 0.00 0.00 27 1014.0
20260830230039 99 150 3.0 9.0 0.00 0.00 0.00 27 1013.8
20260830225517 99 155 1.0 5.0 0.00 0.00 0.00 27 1013.9
20260830225022 99 150 1.0 8.0 0.00 0.00 0.00 26 1014.0
20260830224543 99 154 3.0 10.0 0.00 0.00 0.00 26 1014.0
20260830224019 99 140 3.0 11.0 0.00 0.00 0.00 26 1014.1
20260830223519 99 140 4.0 11.0 0.00 0.00 0.00 26 1014.0
20260830223042 100 149 2.0 10.0 0.00 0.00 0.00 26 1014.0
20260830222518 100 211 4.0 10.0 0.00 0.00 0.00 26 1014.0
20260830222022 100 158 3.0 9.0 0.00 0.00 0.00 26 1014.0
20260830221541 100 167 3.0 9.0 0.00 0.00 0.00 26 1014.1
20260830221016 100 146 3.0 8.0 0.00 0.00 0.00 26 1014.1
20260830220516 101 95 1.0 9.0 0.00 0.00 0.00 26 1014.1
20260830220043 100 129 2.0 9.0 0.00 0.00 0.00 26 1014.1
20260830215520 100 151 2.0 15.0 0.00 0.00 0.00 26 1014.1
20260830215020 101 187 2.0 15.0 0.00 0.00 0.00 26 1014.1
20260830214540 101 129 7.0 14.0 0.00 0.00 0.00 25 1014.0
20260830214019 102 119 3.0 9.0 0.00 0.00 0.00 26 1014.2
20260830213516 100 134 3.0 11.0 0.00 0.00 0.00 26 1014.2
20260830213042 102 153 3.0 12.0 0.00 0.00 0.00 25 1014.3
20260830212519 101 151 6.0 12.0 0.00 0.00 0.00 25 1014.4
20260830212023 101 92 3.0 11.0 0.00 0.00 0.00 26 1014.6
20260830211541 100 121 3.0 8.0 0.00 0.00 0.00 27 1014.5
20260830211019 98 318 2.0 11.0 0.00 0.00 0.00 27 1014.6
20260830210520 100 132 4.0 11.0 0.00 0.00 0.00 27 1015.0
20260830210038 101 150 4.0 10.0 0.00 0.00 0.00 26 1015.0
20260830205518 102 125 3.0 8.0 0.00 0.00 0.00 26 1015.0
20260830205024 101 161 3.0 11.0 0.00 0.00 0.00 26 1014.9
20260830204541 101 144 6.0 13.0 0.00 0.00 0.00 26 1015.1
20260830204018 100 164 2.0 14.0 0.00 0.00 0.00 26 1015.1
20260830203519 102 130 6.0 14.0 0.00 0.00 0.00 25 1015.2
20260830203037 102 185 4.0 13.0 0.00 0.00 0.00 26 1015.2
20260830202524 100 117 2.0 7.0 0.00 0.00 0.00 27 1015.3
20260830202018 100 110 2.0 8.0 0.00 0.00 0.00 27 1015.4
20260830201605 101 159 2.0 10.0 0.00 0.00 0.00 27 1015.5
20260830201021 102 255 5.0 10.0 0.00 0.00 0.00 26 1015.6
20260830200519 102 153 3.0 7.0 0.00 0.00 0.00 27 1015.7
20260830200040 100 145 2.0 8.0 0.00 0.00 0.00 28 1015.7
20260830195517 100 228 2.0 12.0 0.00 0.00 0.00 27 1015.7
20260830195016 101 146 5.0 12.0 0.00 0.00 0.00 27 1015.8
20260830194545 102 196 3.0 12.0 0.00 0.00 0.00 27 1015.6
20260830194024 101 166 3.0 9.0 0.00 0.00 0.00 28 1015.9
20260830193520 101 188 4.0 9.0 0.00 0.00 0.00 27 1015.9
20260830193043 101 192 3.0 8.0 0.00 0.00 0.00 29 1016.0
20260830192520 99 138 1.0 8.0 0.00 0.00 0.00 29 1016.1
20260830192019 102 221 2.0 12.0 0.00 0.00 0.00 28 1016.1
20260830191547 100 0 1.0 12.0 0.00 0.00 0.00 29 1016.1
20260830191026 101 217 4.0 10.0 0.00 0.00 0.00 29 1016.2
20260830190520 100 209 3.0 10.0 0.00 0.00 0.00 29 1016.2
20260830190039 101 201 2.0 8.0 0.00 0.00 0.00 29 1016.3
20260830185520 101 154 2.0 10.0 0.00 0.00 0.00 29 1016.4
20260830185021 100 178 3.0 10.0 0.00 0.00 0.00 29 1016.5
20260830184541 99 200 3.0 8.0 0.00 0.00 0.00 31 1016.5
20260830184019 98 155 2.0 11.0 0.00 0.00 0.00 32 1016.5
20260830183520 100 209 1.0 11.0 0.00 0.00 0.00 30 1016.7
20260830183036 100 171 5.0 11.0 0.00 0.00 0.00 28 1016.7
20260830182518 100 169 2.0 7.0 0.00 0.00 0.00 31 1016.8
20260830182021 100 137 2.0 12.0 0.00 0.00 0.00 31 1017.0
20260830181548 100 150 4.0 14.0 0.00 0.00 0.00 32 1017.0
20260830181020 99 138 5.0 14.0 0.00 0.00 0.00 32 1017.0
20260830180520 99 220 3.0 9.0 0.00 0.00 0.00 33 1017.1
20260830180042 99 189 2.0 11.0 0.00 0.00 0.00 33 1017.3
20260830175519 97 196 4.0 11.0 0.00 0.00 0.00 35 1017.3
20260830175020 95 157 3.0 8.0 0.00 0.00 0.00 37 1017.5
20260830174540 96 253 2.0 9.0 0.00 0.00 0.00 36 1017.5
20260830174020 98 159 3.0 9.0 0.00 0.00 0.00 35 1017.6
20260830173518 98 150 3.0 8.0 0.00 0.00 0.00 36 1017.8
20260830173039 98 94 2.0 9.0 0.00 0.00 0.00 36 1017.8
20260830172519 97 171 4.0 9.0 0.00 0.00 0.00 37 1017.9
20260830172018 95 161 1.0 10.0 0.00 0.00 0.00 39 1018.0
20260830171542 97 190 3.0 10.0 0.00 0.00 0.00 36 1018.1
20260830171018 97 143 3.0 10.0 0.00 0.00 0.00 38 1018.1
20260830170518 96 159 3.0 11.0 0.00 0.00 0.00 38 1018.2
20260830170041 96 177 5.0 11.0 0.00 0.00 0.00 38 1018.3
20260830165517 96 144 4.0 11.0 0.00 0.00 0.00 40 1018.3
20260830165016 96 151 4.0 11.0 0.00 0.00 0.00 39 1018.4
20260830164539 96 159 3.0 10.0 0.00 0.00 0.00 40 1018.4
20260830164021 95 171 3.0 12.0 0.00 0.00 0.00 41 1018.3
20260830163519 94 234 4.0 12.0 0.00 0.00 0.00 42 1018.4
20260830163041 94 243 6.0 11.0 0.00 0.00 0.00 42 1018.5
20260830162519 94 155 2.0 9.0 0.00 0.00 0.00 43 1018.5
20260830162021 94 163 3.0 9.0 0.00 0.00 0.00 43 1018.6
20260830161541 93 146 2.0 9.0 0.00 0.00 0.00 44 1018.6
20260830161017 93 138 4.0 11.0 0.00 0.00 0.00 44 1018.5
20260830160520 92 219 5.0 13.0 0.00 0.00 0.00 45 1018.5
20260830160039 94 210 4.0 13.0 0.00 0.00 0.00 44 1018.5
20260830155520 93 89 3.0 10.0 0.00 0.00 0.00 45 1018.5
20260830155019 92 181 4.0 10.0 0.00 0.00 0.00 46 1018.5
20260830154539 92 200 2.0 9.0 0.00 0.00 0.00 45 1018.5
20260830154021 92 155 2.0 9.0 0.00 0.00 0.00 46 1018.4
20260830153520 91 225 3.0 9.0 0.00 0.00 0.00 46 1018.3
20260830153045 90 202 4.0 9.0 0.00 0.00 0.00 47 1018.4
20260830152524 91 210 4.0 10.0 0.00 0.00 0.00 47 1018.4
20260830152021 90 173 2.0 13.0 0.00 0.00 0.00 48 1018.4
20260830151536 90 225 4.0 13.0 0.00 0.00 0.00 49 1018.4
20260830151026 89 182 4.0 12.0 0.00 0.00 0.00 49 1018.4
20260830150518 89 169 4.0 12.0 0.00 0.00 0.00 49 1018.4
20260830150041 89 0 3.0 9.0 0.00 0.00 0.00 50 1018.4
20260830145519 88 212 4.0 9.0 0.00 0.00 0.00 50 1018.3
20260830145019 88 167 3.0 10.0 0.00 0.00 0.00 51 1018.3
20260830144544 87 218 4.0 10.0 0.00 0.00 0.00 53 1018.3
20260830144016 87 190 3.0 9.0 0.00 0.00 0.00 53 1018.3
20260830143520 87 206 2.0 9.0 0.00 0.00 0.00 53 1018.3
20260830143035 86 207 2.0 9.0 0.00 0.00 0.00 54 1018.3
20260830142520 85 184 3.0 9.0 0.00 0.00 0.00 55 1018.4
20260830142018 84 200 4.0 9.0 0.00 0.00 0.00 56 1018.4
20260830141540 84 223 5.0 9.0 0.00 0.00 0.00 57 1018.4
20260830141021 84 188 3.0 8.0 0.00 0.00 0.00 59 1018.3
20260830140517 83 231 2.0 6.0 0.00 0.00 0.00 62 1018.3
20260830140043 82 216 3.0 6.0 0.00 0.00 0.00 64 1018.3
20260830135522 81 206 3.0 6.0 0.00 0.00 0.00 65 1018.4
20260830135022 81 220 1.0 6.0 0.00 0.00 0.00 67 1018.3
20260830134540 80 0 2.0 6.0 0.00 0.00 0.00 69 1018.3
20260830134019 79 195 0.0 4.0 0.00 0.00 0.00 71 1018.2
20260830133522 78 193 0.0 4.0 0.00 0.00 0.00 71 1018.2
20260830133045 77 150 0.0 2.0 0.00 0.00 0.00 73 1018.2
20260830132519 76 0 0.0 2.0 0.00 0.00 0.00 74 1018.3
20260830132020 76 0 0.0 3.0 0.00 0.00 0.00 75 1018.3
20260830131539 75 150 0.0 3.0 0.00 0.00 0.00 77 1018.2
20260830131017 75 150 0.0 3.0 0.00 0.00 0.00 77 1018.1
20260830130524 74 0 0.0 2.0 0.00 0.00 0.00 78 1018.1
20260830130045 73 0 0.0 2.0 0.00 0.00 0.00 80 1018.0
20260830125517 73 150 0.0 2.0 0.00 0.00 0.00 80 1018.0
20260830125016 72 0 0.0 0.0 0.00 0.00 0.00 81 1017.9
20260830124540 72 0 0.0 1.0 0.00 0.00 0.00 82 1017.9
20260830124022 71 0 0.0 1.0 0.00 0.00 0.00 82 1017.8
20260830123518 71 0 0.0 0.0 0.00 0.00 0.00 82 1017.9
20260830123041 71 0 0.0 0.0 0.00 0.00 0.00 82 1017.9
20260830122521 71 0 0.0 0.0 0.00 0.00 0.00 83 1017.8
20260830122021 71 0 0.0 0.0 0.00 0.00 0.00 83 1017.7
20260830121537 71 0 0.0 0.0 0.00 0.00 0.00 82 1017.6
20260830121017 71 0 0.0 0.0 0.00 0.00 0.00 81 1017.5
20260830120521 71 0 0.0 0.0 0.00 0.00 0.00 81 1017.3
20260830120048 71 0 0.0 1.0 0.00 0.00 0.00 80 1017.3
20260830115523 72 0 0.0 1.0 0.00 0.00 0.00 80 1017.2
20260830115020 72 0 0.0 1.0 0.00 0.00 0.00 81 1017.2
20260830114551 72 0 0.0 1.0 0.00 0.00 0.00 80 1017.2
20260830114018 72 0 0.0 1.0 0.00 0.00 0.00 80 1017.1
20260830113522 71 0 0.0 1.0 0.00 0.00 0.00 80 1017.1
20260830113038 71 0 0.0 1.0 0.00 0.00 0.00 80 1017.0
20260830112516 71 0 0.0 1.0 0.00 0.00 0.00 80 1017.0
20260830112019 71 0 0.0 0.0 0.00 0.00 0.00 79 1017.0
20260830111536 71 0 0.0 0.0 0.00 0.00 0.00 79 1016.9
20260830111021 72 0 0.0 0.0 0.00 0.00 0.00 79 1017.0
20260830110519 71 0 0.0 1.0 0.00 0.00 0.00 78 1017.0
20260830110041 72 0 0.0 1.0 0.00 0.00 0.00 78 1016.8
20260830105522 72 150 0.0 1.0 0.00 0.00 0.00 77 1016.9
20260830105019 72 0 0.0 1.0 0.00 0.00 0.00 77 1017.0
20260830104540 72 0 0.0 1.0 0.00 0.00 0.00 77 1016.9
20260830104019 72 0 0.0 1.0 0.00 0.00 0.00 77 1016.9
20260830103519 72 0 0.0 1.0 0.00 0.00 0.00 77 1016.8
20260830103039 72 0 0.0 1.0 0.00 0.00 0.00 77 1016.8
20260830102521 72 0 0.0 1.0 0.00 0.00 0.00 76 1016.8
20260830102018 72 150 0.0 1.0 0.00 0.00 0.00 76 1016.8
20260830101536 72 0 0.0 1.0 0.00 0.00 0.00 75 1016.7
20260830101019 72 0 0.0 1.0 0.00 0.00 0.00 75 1016.7
20260830100520 72 0 0.0 1.0 0.00 0.00 0.00 75 1016.7
20260830100039 72 0 0.0 1.0 0.00 0.00 0.00 74 1016.6
20260830095522 73 0 0.0 0.0 0.00 0.00 0.00 74 1016.6
20260830095016 72 0 0.0 1.0 0.00 0.00 0.00 74 1016.6
20260830094602 73 0 0.0 1.0 0.00 0.00 0.00 73 1016.6
20260830094016 73 0 0.0 2.0 0.00 0.00 0.00 73 1016.6
20260830093523 73 0 0.0 2.0 0.00 0.00 0.00 72 1016.6
20260830093038 73 0 0.0 1.0 0.00 0.00 0.00 72 1016.6
20260830092517 73 0 0.0 1.0 0.00 0.00 0.00 72 1016.6
20260830092020 73 0 0.0 1.0 0.00 0.00 0.00 71 1016.6
20260830091539 73 0 0.0 1.0 0.00 0.00 0.00 71 1016.5
20260830091019 73 0 0.0 1.0 0.00 0.00 0.00 71 1016.5
20260830090519 73 0 0.0 1.0 0.00 0.00 0.00 70 1016.4
20260830090046 74 150 0.0 1.0 0.00 0.00 0.00 70 1016.4
20260830085517 74 0 0.0 1.0 0.00 0.00 0.00 69 1016.5
20260830085018 74 0 0.0 1.0 0.00 0.00 0.00 69 1016.5
20260830084537 74 0 0.0 1.0 0.00 0.00 0.00 69 1016.5
20260830084020 74 0 0.0 1.0 0.00 0.00 0.00 69 1016.6
20260830083520 73 0 0.0 1.0 0.00 0.00 0.00 69 1016.7
20260830083037 73 0 0.0 1.0 0.00 0.00 0.00 68 1016.7
20260830082517 74 0 0.0 1.0 0.00 0.00 0.00 67 1016.7
20260830082017 75 0 0.0 1.0 0.00 0.00 0.00 67 1016.6
20260830081537 75 0 0.0 1.0 0.00 0.00 0.00 67 1016.7
20260830081020 75 0 0.0 2.0 0.00 0.00 0.00 66 1016.7
20260830080519 75 150 0.0 2.0 0.00 0.00 0.00 66 1016.7
20260830080043 75 150 0.0 0.0 0.00 0.00 0.00 65 1016.8
20260830075520 75 0 0.0 2.0 0.00 0.00 0.00 65 1016.8
20260830075021 75 0 0.0 2.0 0.00 0.00 0.00 65 1016.8
20260830074540 75 0 0.0 3.0 0.00 0.00 0.00 65 1016.9
20260830074016 75 144 0.0 4.0 0.00 0.00 0.00 64 1016.9
20260830073518 76 160 1.0 4.0 0.00 0.00 0.00 64 1016.9
20260830073038 76 152 1.0 2.0 0.00 0.00 0.00 64 1016.9
20260830072521 76 144 0.0 2.0 0.00 0.00 0.00 63 1017.0
20260830072020 76 144 0.0 3.0 0.00 0.00 0.00 62 1016.9
20260830071541 76 144 0.0 3.0 0.00 0.00 0.00 63 1017.0
20260830071018 76 157 1.0 3.0 0.00 0.00 0.00 63 1016.9
20260830070523 76 157 1.0 2.0 0.00 0.00 0.00 63 1016.8
20260830070043 76 0 0.0 2.0 0.00 0.00 0.00 62 1016.9
20260830065522 76 157 0.0 2.0 0.00 0.00 0.00 62 1016.9
20260830065019 76 157 0.0 2.0 0.00 0.00 0.00 62 1017.0
20260830064547 76 0 0.0 2.0 0.00 0.00 0.00 62 1017.0
20260830064017 76 157 0.0 2.0 0.00 0.00 0.00 62 1017.0
20260830063519 76 157 0.0 2.0 0.00 0.00 0.00 61 1016.9
20260830063040 77 0 0.0 2.0 0.00 0.00 0.00 61 1017.0
20260830062524 77 0 0.0 1.0 0.00 0.00 0.00 60 1017.0
20260830062021 77 0 0.0 2.0 0.00 0.00 0.00 60 1017.0
20260830061545 77 0 0.0 2.0 0.00 0.00 0.00 60 1016.9
20260830061019 77 157 0.0 2.0 0.00 0.00 0.00 60 1016.8
20260830060516 77 0 0.0 2.0 0.00 0.00 0.00 59 1016.9
20260830060037 77 0 0.0 2.0 0.00 0.00 0.00 59 1016.9
20260830055520 77 0 0.0 2.0 0.00 0.00 0.00 59 1017.0
20260830055020 77 0 0.0 1.0 0.00 0.00 0.00 59 1017.0
20260830054545 78 0 0.0 1.0 0.00 0.00 0.00 58 1016.9
20260830054021 78 0 0.0 1.0 0.00 0.00 0.00 57 1016.8
20260830053516 78 0 0.0 1.0 0.00 0.00 0.00 57 1016.9
20260830053040 78 0 0.0 1.0 0.00 0.00 0.00 57 1016.9
20260830052519 78 0 0.0 1.0 0.00 0.00 0.00 57 1016.9
20260830052020 78 0 0.0 1.0 0.00 0.00 0.00 57 1016.9
20260830051537 79 0 0.0 1.0 0.00 0.00 0.00 56 1016.8
20260830051018 79 0 0.0 1.0 0.00 0.00 0.00 56 1016.8
20260830050518 79 0 0.0 1.0 0.00 0.00 0.00 55 1016.9
20260830050042 79 0 0.0 2.0 0.00 0.00 0.00 55 1016.8
20260830045524 80 0 0.0 2.0 0.00 0.00 0.00 55 1016.9
20260830045017 80 164 0.0 2.0 0.00 0.00 0.00 54 1016.9
20260830044542 81 151 0.0 2.0 0.00 0.00 0.00 53 1016.9
20260830044016 81 0 0.0 2.0 0.00 0.00 0.00 52 1016.9
20260830043524 82 0 0.0 2.0 0.00 0.00 0.00 52 1016.9
20260830043048 82 157 0.0 3.0 0.00 0.00 0.00 51 1016.9
20260830042518 83 182 0.0 5.0 0.00 0.00 0.00 50 1016.8
20260830042021 83 0 1.0 5.0 0.00 0.00 0.00 50 1016.8
20260830041544 83 144 1.0 5.0 0.00 0.00 0.00 49 1016.8
20260830041019 83 158 1.0 5.0 0.00 0.00 0.00 49 1016.8
20260830040526 84 173 1.0 5.0 0.00 0.00 0.00 48 1016.7
20260830040100 84 153 1.0 6.0 0.00 0.00 0.00 48 1016.8
20260830035521 85 160 2.0 7.0 0.00 0.00 0.00 47 1016.7
20260830035023 85 155 3.0 7.0 0.00 0.00 0.00 47 1016.8
20260830034542 85 166 3.0 7.0 0.00 0.00 0.00 46 1016.7
20260830034019 85 171 2.0 8.0 0.00 0.00 0.00 46 1016.7
20260830033522 85 169 3.0 8.0 0.00 0.00 0.00 46 1016.7
20260830033047 85 150 2.0 8.0 0.00 0.00 0.00 46 1016.7
20260830032517 85 123 2.0 6.0 0.00 0.00 0.00 46 1016.7
20260830032020 85 147 1.0 9.0 0.00 0.00 0.00 46 1016.5
20260830031549 85 149 2.0 9.0 0.00 0.00 0.00 45 1016.5
20260830031027 85 163 2.0 6.0 0.00 0.00 0.00 45 1016.5
20260830030520 85 153 1.0 6.0 0.00 0.00 0.00 45 1016.4
20260830030039 86 164 2.0 5.0 0.00 0.00 0.00 44 1016.4
20260830025520 86 146 2.0 7.0 0.00 0.00 0.00 44 1016.4
20260830025019 86 150 2.0 7.0 0.00 0.00 0.00 44 1016.3